GW3329 Weather Reports


time (UTC)temp
C
wind
direction
speed
KPH
gust
KPH
rain 1hr
cm
rain 24hr
cm
rain mn
cm
humidity
%
barometer
mb
20260509144124 12 142 0.0 0.0 0.00 0.00 0.00 98 1017.6
20260509143621 12 145 0.0 0.0 0.00 0.00 0.00 98 1017.7
20260509143119 12 147 0.0 0.0 0.00 0.00 0.00 98 1017.8
20260509142614 12 170 0.0 0.0 0.00 0.00 0.00 98 1017.7
20260509142111 12 133 0.0 0.0 0.00 0.00 0.00 98 1017.8
20260509141607 12 142 0.0 0.0 0.00 0.00 0.00 98 1017.8
20260509141103 12 78 0.0 0.0 0.00 0.00 0.00 98 1017.8
20260509140600 12 132 0.0 0.0 0.00 0.00 0.00 98 1017.6
20260509140058 12 126 0.0 0.0 0.00 0.00 0.00 98 1017.7
20260509135555 12 149 0.0 0.0 0.00 0.00 0.00 98 1017.7
20260509135053 12 323 0.0 0.0 0.00 0.00 0.00 98 1017.5
20260509134549 12 165 0.0 0.0 0.00 0.00 0.00 98 1017.6
20260509134047 12 345 0.0 0.0 0.00 0.00 0.00 98 1017.4
20260509133544 12 133 0.0 1.6 0.00 0.00 0.00 98 1017.3
20260509133042 12 149 0.0 0.0 0.00 0.00 0.00 98 1017.3
20260509132540 12 87 0.0 0.0 0.00 0.00 0.00 98 1017.1
20260509132037 12 163 0.0 0.0 0.00 0.00 0.00 98 1017.4
20260509131528 12 161 0.0 0.0 0.00 0.00 0.00 98 1017.4
20260509131025 11 156 0.0 0.0 0.00 0.00 0.00 98 1017.3
20260509130520 11 162 0.0 0.0 0.00 0.00 0.00 98 1017.4
20260509130018 11 186 0.0 0.0 0.00 0.00 0.00 97 1017.2
20260509125514 11 162 0.0 0.0 0.00 0.00 0.00 98 1017.2
20260509125010 11 165 0.0 0.0 0.00 0.00 0.00 98 1017.1
20260509124507 11 168 0.0 0.0 0.00 0.00 0.00 98 1017.1
20260509124004 11 158 0.0 0.0 0.00 0.00 0.00 98 1017.0
20260509123502 11 161 0.0 0.0 0.00 0.00 0.00 98 1016.9
20260509122957 11 146 0.0 0.0 0.00 0.00 0.00 98 1016.9
20260509122455 11 166 0.0 0.0 0.00 0.00 0.00 98 1017.1
20260509121951 11 155 0.0 0.0 0.00 0.00 0.00 98 1017.0
20260509121448 11 164 0.0 0.0 0.00 0.00 0.00 98 1016.9
20260509120946 11 171 0.0 0.0 0.00 0.00 0.00 98 1016.9
20260509120444 11 34 0.0 0.0 0.00 0.00 0.00 98 1016.9
20260509115942 11 145 0.0 0.0 0.00 0.00 0.00 98 1016.9
20260509115439 11 171 0.0 0.0 0.00 0.00 0.00 98 1016.8
20260509114936 11 145 0.0 0.0 0.00 0.00 0.00 98 1017.1
20260509114435 11 161 0.0 0.0 0.00 0.00 0.00 98 1017.0
20260509113934 11 160 0.0 0.0 0.00 0.00 0.00 98 1016.9
20260509113431 11 157 0.0 0.0 0.00 0.00 0.00 98 1017.1
20260509112927 11 157 0.0 0.0 0.00 0.00 0.00 98 1016.9
20260509112425 11 164 0.0 0.0 0.00 0.00 0.00 98 1017.1
20260509111921 11 146 0.0 0.0 0.00 0.00 0.00 98 1017.2
20260509111419 11 160 0.0 0.0 0.00 0.00 0.00 98 1017.0
20260509110916 11 160 0.0 0.0 0.00 0.00 0.00 98 1017.2
20260509110412 10 160 0.0 0.0 0.00 0.00 0.00 98 1017.2
20260509105910 10 160 0.0 0.0 0.00 0.00 0.00 98 1017.1
20260509105408 10 162 0.0 0.0 0.00 0.00 0.00 98 1017.5
20260509104905 10 144 0.0 0.0 0.00 0.00 0.00 98 1017.0
20260509104402 10 144 0.0 0.0 0.00 0.00 0.00 98 1017.3
20260509103859 10 177 0.0 0.0 0.00 0.00 0.00 98 1017.3
20260509103356 10 184 0.0 1.6 0.00 0.00 0.00 98 1017.3
20260509102855 10 171 0.0 0.0 0.00 0.00 0.00 98 1017.2
20260509102352 10 163 0.0 0.0 0.00 0.00 0.00 98 1017.2
20260509101847 10 163 0.0 0.0 0.00 0.00 0.00 98 1017.2
20260509101344 10 170 0.0 0.0 0.00 0.00 0.00 98 1017.2
20260509100842 10 173 0.0 0.0 0.00 0.00 0.00 98 1017.1
20260509100339 11 173 0.0 0.0 0.00 0.00 0.00 98 1017.3
20260509095835 11 176 0.0 0.0 0.00 0.00 0.00 98 1017.2
20260509095333 11 187 0.0 1.6 0.00 0.00 0.00 98 1017.3
20260509094830 11 196 0.0 0.0 0.00 0.00 0.00 98 1017.3
20260509094326 11 179 0.0 3.2 0.00 0.00 0.00 98 1017.2
20260509093824 11 195 0.0 0.0 0.00 0.00 0.00 98 1017.4
20260509093321 11 173 0.0 0.0 0.00 0.00 0.00 98 1017.3
20260509092820 11 172 0.0 0.0 0.00 0.00 0.00 98 1017.2
20260509092317 11 172 0.0 0.0 0.00 0.00 0.00 98 1017.2
20260509091815 11 172 0.0 0.0 0.00 0.00 0.00 98 1017.2
20260509091311 11 172 0.0 0.0 0.00 0.00 0.00 98 1017.1
20260509090809 11 172 0.0 0.0 0.00 0.00 0.00 98 1017.3
20260509090306 11 172 0.0 0.0 0.00 0.00 0.00 97 1017.4
20260509085803 11 172 0.0 0.0 0.00 0.00 0.00 97 1017.5
20260509085301 11 172 0.0 0.0 0.00 0.00 0.00 97 1017.6
20260509084757 11 172 0.0 0.0 0.00 0.00 0.00 97 1017.5
20260509084254 11 172 0.0 0.0 0.00 0.00 0.00 97 1017.8
20260509083752 11 172 0.0 0.0 0.00 0.00 0.00 97 1017.4
20260509083248 11 172 0.0 0.0 0.00 0.00 0.00 97 1017.6
20260509082745 11 172 0.0 0.0 0.00 0.00 0.00 97 1017.7
20260509082241 11 173 0.0 0.0 0.00 0.00 0.00 97 1017.6
20260509081738 11 172 0.0 0.0 0.00 0.00 0.00 97 1017.6
20260509081236 11 172 0.0 0.0 0.00 0.00 0.00 97 1017.8
20260509080734 11 172 0.0 0.0 0.00 0.00 0.00 97 1018.0
20260509080231 11 172 0.0 0.0 0.00 0.00 0.00 97 1017.9
20260509075729 11 172 0.0 0.0 0.00 0.00 0.00 97 1018.1
20260509075227 11 172 0.0 0.0 0.00 0.00 0.00 97 1017.8
20260509074723 11 172 0.0 0.0 0.00 0.00 0.00 96 1018.0
20260509074221 11 172 0.0 0.0 0.00 0.00 0.00 96 1018.1
20260509073717 11 172 0.0 0.0 0.00 0.00 0.00 96 1018.0
20260509073214 12 172 0.0 0.0 0.00 0.00 0.00 96 1017.8
20260509072710 12 172 0.0 0.0 0.00 0.00 0.00 96 1017.8
20260509072207 12 172 0.0 0.0 0.00 0.00 0.00 96 1017.8
20260509071703 12 173 0.0 0.0 0.00 0.00 0.00 96 1018.0
20260509071201 12 173 0.0 0.0 0.00 0.00 0.00 96 1018.0
20260509070658 12 173 0.0 0.0 0.00 0.00 0.00 96 1018.0
20260509070154 12 173 0.0 0.0 0.00 0.00 0.00 95 1017.9
20260509065650 12 173 0.0 0.0 0.00 0.00 0.00 95 1018.1
20260509065147 12 173 0.0 0.0 0.00 0.00 0.00 95 1018.1
20260509064643 12 173 0.0 0.0 0.00 0.00 0.00 95 1018.2
20260509064141 12 173 0.0 0.0 0.00 0.00 0.00 95 1018.1
20260509063638 12 174 0.0 0.0 0.00 0.00 0.00 95 1018.1
20260509063134 12 174 0.0 0.0 0.00 0.00 0.00 94 1018.1
20260509062632 12 174 0.0 0.0 0.00 0.00 0.00 94 1018.1
20260509062129 12 174 0.0 0.0 0.00 0.00 0.00 94 1018.3
20260509061626 13 176 0.0 0.0 0.00 0.00 0.00 94 1018.0
20260509061123 13 177 0.0 0.0 0.00 0.00 0.00 93 1018.1
20260509060621 13 190 0.0 0.0 0.00 0.00 0.00 93 1018.0
20260509060116 13 174 0.0 0.0 0.00 0.00 0.00 93 1018.2
20260509055612 13 180 0.0 1.6 0.00 0.00 0.00 93 1017.9
20260509055108 13 183 0.0 0.0 0.00 0.00 0.00 93 1018.3
20260509054605 13 178 0.0 0.0 0.00 0.00 0.00 93 1018.2
20260509054103 13 195 0.0 0.0 0.00 0.00 0.00 93 1018.1
20260509053601 13 168 0.0 0.0 0.00 0.00 0.00 93 1018.1
20260509053058 13 164 0.0 0.0 0.00 0.00 0.00 93 1018.1
20260509052555 13 165 0.0 0.0 0.00 0.00 0.00 93 1018.0
20260509052053 13 165 0.0 0.0 0.00 0.00 0.00 92 1018.1
20260509051551 13 167 0.0 0.0 0.00 0.00 0.00 92 1018.3
20260509051047 13 168 0.0 0.0 0.00 0.00 0.00 92 1018.3
20260509050544 13 171 0.0 0.0 0.00 0.00 0.00 92 1018.1
20260509050041 13 170 0.0 0.0 0.00 0.00 0.00 92 1018.0
20260509045538 13 173 0.0 0.0 0.00 0.00 0.00 92 1018.2
20260509045035 13 175 0.0 0.0 0.00 0.00 0.00 92 1018.1
20260509044533 13 178 0.0 0.0 0.00 0.00 0.00 92 1018.0
20260509044030 13 187 0.0 0.0 0.00 0.00 0.00 91 1017.9
20260509043526 13 160 0.0 0.0 0.00 0.00 0.00 91 1017.8
20260509043022 14 164 0.0 0.0 0.00 0.00 0.00 91 1017.7
20260509042518 14 164 0.0 0.0 0.00 0.00 0.00 91 1017.8
20260509042014 14 165 0.0 0.0 0.00 0.00 0.00 91 1017.7
20260509041511 14 170 0.0 0.0 0.00 0.00 0.00 91 1017.7
20260509041009 14 172 0.0 0.0 0.00 0.00 0.00 91 1017.7
20260509040507 14 171 0.0 0.0 0.00 0.00 0.00 91 1017.5
20260509040004 13 170 0.0 0.0 0.00 0.00 0.00 90 1017.5
20260509035501 14 170 0.0 0.0 0.00 0.00 0.00 91 1017.5
20260509034957 14 163 0.0 0.0 0.00 0.00 0.00 90 1017.5
20260509034455 14 163 0.0 0.0 0.00 0.00 0.00 90 1017.7
20260509033952 14 163 0.0 0.0 0.00 0.00 0.00 90 1017.6
20260509033449 14 166 0.0 0.0 0.00 0.00 0.00 89 1017.6
20260509032945 15 169 0.0 0.0 0.00 0.00 0.00 89 1017.6
20260509032443 15 157 0.0 0.0 0.00 0.00 0.00 88 1017.5
20260509031940 15 128 0.0 0.0 0.00 0.00 0.00 87 1017.4
20260509031438 15 31 0.0 1.6 0.00 0.00 0.00 87 1017.6
20260509030935 15 26 0.0 1.6 0.00 0.00 0.00 87 1017.4
20260509030433 15 41 0.0 3.2 0.00 0.00 0.00 86 1017.5
20260509025930 15 49 0.0 3.2 0.00 0.00 0.00 86 1017.5
20260509025425 15 344 1.6 1.6 0.00 0.00 0.00 86 1017.4
20260509024921 15 32 3.2 4.8 0.00 0.00 0.00 85 1017.4
20260509024417 16 163 0.0 0.0 0.00 0.00 0.00 85 1017.2
20260509023914 16 167 0.0 0.0 0.00 0.00 0.00 85 1017.1
20260509023411 16 176 0.0 1.6 0.00 0.00 0.00 85 1016.9
20260509022908 16 180 0.0 0.0 0.00 0.00 0.00 84 1017.1
20260509022405 16 184 0.0 0.0 0.00 0.00 0.00 84 1017.0
20260509021902 16 210 0.0 1.6 0.00 0.00 0.00 84 1016.7
20260509021359 16 178 0.0 3.2 0.00 0.00 0.00 84 1017.1
20260509020857 16 184 1.6 1.6 0.00 0.00 0.00 83 1017.3
20260509020355 16 133 0.0 0.0 0.00 0.00 0.00 83 1017.2
20260509015852 16 123 0.0 3.2 0.00 0.00 0.00 83 1017.2
20260509015350 16 191 0.0 1.6 0.00 0.00 0.00 82 1017.1
20260509014846 17 215 3.2 3.2 0.00 0.00 0.00 81 1017.1
20260509014343 17 59 1.6 3.2 0.00 0.00 0.00 80 1016.9
20260509013839 17 136 0.0 4.8 0.00 0.00 0.00 79 1017.2
20260509013336 17 180 0.0 0.0 0.00 0.00 0.00 78 1017.1
20260509012832 17 276 4.8 9.7 0.00 0.00 0.00 78 1017.2
20260509012329 18 229 4.8 6.4 0.00 0.00 0.00 77 1017.3
20260509011827 18 203 1.6 4.8 0.00 0.00 0.00 77 1017.0
20260509011324 18 355 1.6 4.8 0.00 0.00 0.00 77 1017.2
20260509010821 18 169 3.2 9.7 0.00 0.00 0.00 77 1017.1
20260509010319 18 278 3.2 4.8 0.00 0.00 0.00 76 1017.0
20260509005815 18 207 1.6 3.2 0.00 0.00 0.00 76 1017.1
20260509005313 18 256 6.4 9.7 0.00 0.00 0.00 76 1016.9
20260509004808 18 27 1.6 4.8 0.00 0.00 0.00 76 1017.0
20260509004304 18 305 1.6 11.3 0.00 0.00 0.00 76 1017.0
20260509003803 18 265 1.6 9.7 0.00 0.00 0.00 76 1017.0
20260509003300 18 277 3.2 9.7 0.00 0.00 0.00 75 1017.2
20260509002757 19 182 0.0 4.8 0.00 0.00 0.00 74 1017.1
20260509002255 19 297 3.2 4.8 0.00 0.00 0.00 74 1017.0
20260509001752 19 267 8.0 11.3 0.00 0.00 0.00 74 1017.1
20260509001248 20 159 0.0 6.4 0.00 0.00 0.00 72 1017.1
20260509000746 20 149 0.0 6.4 0.00 0.00 0.00 72 1017.2
20260509000242 20 224 1.6 4.8 0.00 0.00 0.00 72 1017.2
20260508235739 20 211 3.2 6.4 0.00 0.00 0.00 72 1017.3
20260508235230 20 60 1.6 11.3 0.00 0.00 0.00 72 1017.2
20260508234727 20 55 1.6 3.2 0.00 0.00 0.00 71 1017.1
20260508234223 20 168 3.2 12.9 0.00 0.00 0.00 71 1017.2
20260508233718 21 219 3.2 4.8 0.00 0.00 0.00 70 1017.3
20260508233215 20 59 3.2 6.4 0.00 0.00 0.00 71 1017.5
20260508232713 21 167 1.6 11.3 0.00 0.00 0.00 70 1017.2
20260508232209 21 300 3.2 6.4 0.00 0.00 0.00 71 1017.3
20260508231707 21 273 3.2 4.8 0.00 0.00 0.00 69 1017.6
20260508231204 21 248 8.0 14.5 0.00 0.00 0.00 71 1017.5
20260508230701 21 279 6.4 11.3 0.00 0.00 0.00 69 1017.7
20260508230156 21 166 3.2 9.7 0.00 0.00 0.00 68 1017.6
20260508225655 21 264 6.4 6.4 0.00 0.00 0.00 69 1017.5
20260508225150 21 257 1.6 4.8 0.00 0.00 0.00 68 1017.8
20260508224649 21 62 1.6 9.7 0.00 0.00 0.00 68 1017.7
20260508224146 22 243 0.0 6.4 0.00 0.00 0.00 68 1017.8
20260508223643 22 293 3.2 6.4 0.00 0.00 0.00 67 1017.8
20260508223141 22 188 9.7 12.9 0.00 0.00 0.00 67 1018.0
20260508222638 22 12 1.6 6.4 0.00 0.00 0.00 66 1018.0
20260508222135 22 114 1.6 6.4 0.00 0.00 0.00 67 1017.9
20260508221631 21 149 3.2 11.3 0.00 0.00 0.00 69 1018.1
20260508221127 22 340 3.2 6.4 0.00 0.00 0.00 67 1018.0
20260508220624 22 4 4.8 4.8 0.00 0.00 0.00 68 1018.2
20260508220120 22 140 3.2 4.8 0.00 0.00 0.00 68 1018.1
20260508215617 22 167 0.0 6.4 0.00 0.00 0.00 67 1018.2
20260508215114 22 236 6.4 9.7 0.00 0.00 0.00 67 1018.3
20260508214611 22 79 1.6 9.7 0.00 0.00 0.00 68 1018.5
20260508214108 21 283 6.4 9.7 0.00 0.00 0.00 67 1018.3
20260508213604 22 59 3.2 3.2 0.00 0.00 0.00 68 1018.4
20260508213101 21 316 1.6 6.4 0.00 0.00 0.00 70 1018.4
20260508212557 22 84 1.6 9.7 0.00 0.00 0.00 68 1018.5
20260508212054 21 190 3.2 9.7 0.00 0.00 0.00 69 1018.7
20260508211549 22 291 4.8 9.7 0.00 0.00 0.00 68 1018.6
20260508211045 21 199 6.4 6.4 0.00 0.00 0.00 67 1018.5
20260508210542 22 251 6.4 11.3 0.00 0.00 0.00 68 1018.8
20260508210040 21 201 3.2 9.7 0.00 0.00 0.00 68 1018.9
20260508205537 22 259 9.7 12.9 0.00 0.00 0.00 67 1018.9
20260508205033 21 225 3.2 14.5 0.00 0.00 0.00 70 1019.0
20260508204530 22 184 3.2 11.3 0.00 0.00 0.00 68 1019.0
20260508204025 22 265 3.2 6.4 0.00 0.00 0.00 67 1018.9
20260508203522 21 31 1.6 9.7 0.00 0.00 0.00 69 1019.0
20260508203018 21 28 3.2 6.4 0.00 0.00 0.00 68 1019.0
20260508202515 22 134 0.0 9.7 0.00 0.00 0.00 69 1019.0
20260508202012 22 134 1.6 4.8 0.00 0.00 0.00 68 1019.0
20260508201509 21 202 8.0 9.7 0.00 0.00 0.00 68 1019.0
20260508201005 22 170 0.0 4.8 0.00 0.00 0.00 67 1019.2
20260508200502 22 138 0.0 4.8 0.00 0.00 0.00 66 1019.6
20260508195956 22 215 1.6 6.4 0.00 0.00 0.00 68 1019.4
20260508195455 21 223 6.4 9.7 0.00 0.00 0.00 67 1019.4
20260508194950 22 197 3.2 4.8 0.00 0.00 0.00 66 1019.6
20260508194448 22 171 1.6 9.7 0.00 0.00 0.00 67 1019.6
20260508193945 21 52 1.6 4.8 0.00 0.00 0.00 69 1019.6
20260508193441 21 99 1.6 12.9 0.00 0.00 0.00 69 1019.6
20260508192938 21 267 4.8 11.3 0.00 0.00 0.00 68 1019.2
20260508192435 21 203 4.8 6.4 0.00 0.00 0.00 68 1019.4
20260508191932 21 125 1.6 3.2 0.00 0.00 0.00 69 1019.6
20260508191429 21 259 6.4 9.7 0.00 0.00 0.00 68 1019.8
20260508190925 20 183 4.8 9.7 0.00 0.00 0.00 71 1019.4
20260508190423 20 182 1.6 3.2 0.00 0.00 0.00 70 1019.6
20260508185919 20 210 1.6 3.2 0.00 0.00 0.00 70 1019.6
20260508185417 21 145 1.6 3.2 0.00 0.00 0.00 69 1019.3
20260508184914 20 31 6.4 9.7 0.00 0.00 0.00 71 1020.1
20260508184411 20 210 4.8 9.7 0.00 0.00 0.00 73 1020.0
20260508183908 20 269 4.8 6.4 0.00 0.00 0.00 71 1020.0
20260508183404 20 39 0.0 3.2 0.00 0.00 0.00 72 1019.9
20260508182859 20 147 1.6 3.2 0.00 0.00 0.00 72 1019.8
20260508182357 20 96 0.0 4.8 0.00 0.00 0.00 72 1020.0
20260508181852 20 283 4.8 11.3 0.00 0.00 0.00 73 1020.0
20260508181349 20 212 0.0 1.6 0.00 0.00 0.00 72 1020.2
20260508180846 19 229 1.6 4.8 0.00 0.00 0.00 74 1020.2
20260508180343 18 155 0.0 3.2 0.00 0.00 0.00 76 1020.5
20260508175839 18 269 4.8 9.7 0.00 0.00 0.00 75 1020.4
20260508175336 18 232 4.8 6.4 0.00 0.00 0.00 75 1020.4
20260508174834 18 59 0.0 1.6 0.00 0.00 0.00 76 1020.3
20260508174331 18 61 0.0 6.4 0.00 0.00 0.00 77 1020.4
20260508173827 18 209 1.6 3.2 0.00 0.00 0.00 78 1020.3
20260508173325 17 119 0.0 3.2 0.00 0.00 0.00 80 1020.5
20260508172820 16 297 1.6 3.2 0.00 0.00 0.00 82 1020.3
20260508172318 17 212 1.6 6.4 0.00 0.00 0.00 82 1020.4
20260508171814 17 191 3.2 4.8 0.00 0.00 0.00 82 1020.3
20260508171310 16 326 1.6 3.2 0.00 0.00 0.00 83 1020.4
20260508170807 16 22 0.0 4.8 0.00 0.00 0.00 84 1020.3
20260508170306 16 214 1.6 4.8 0.00 0.00 0.00 84 1020.5
20260508165802 16 142 0.0 1.6 0.00 0.00 0.00 86 1020.3
20260508165259 16 258 3.2 6.4 0.00 0.00 0.00 85 1020.4
20260508164755 16 145 1.6 1.6 0.00 0.00 0.00 85 1020.5
20260508164252 15 144 0.0 0.0 0.00 0.00 0.00 87 1020.1
20260508163750 15 202 1.6 4.8 0.00 0.00 0.00 87 1020.4
20260508163247 15 139 0.0 4.8 0.00 0.00 0.00 88 1020.2
20260508162743 15 179 3.2 3.2 0.00 0.00 0.00 87 1020.6
20260508162240 15 96 0.0 1.6 0.00 0.00 0.00 88 1020.3
20260508161737 15 153 0.0 1.6 0.00 0.00 0.00 88 1020.3
20260508161234 15 100 1.6 3.2 0.00 0.00 0.00 90 1020.2
20260508160732 15 90 0.0 1.6 0.00 0.00 0.00 89 1020.1
20260508160230 15 101 1.6 3.2 0.00 0.00 0.00 89 1020.2
20260508155726 15 164 0.0 1.6 0.00 0.00 0.00 89 1020.1
20260508155223 15 151 0.0 0.0 0.00 0.00 0.00 90 1020.4
20260508154720 15 100 0.0 1.6 0.00 0.00 0.00 90 1020.3
20260508154217 14 145 1.6 3.2 0.00 0.00 0.00 91 1020.3
20260508153714 14 159 0.0 0.0 0.00 0.00 0.00 92 1020.3
20260508153211 14 134 3.2 3.2 0.00 0.00 0.00 91 1020.5
20260508152708 13 80 0.0 3.2 0.00 0.00 0.00 92 1020.5
20260508152203 14 116 0.0 1.6 0.00 0.00 0.00 92 1020.6
20260508151700 13 132 1.6 3.2 0.00 0.00 0.00 92 1020.4
20260508151157 13 74 0.0 0.0 0.00 0.00 0.00 93 1020.4
20260508150654 13 134 0.0 0.0 0.00 0.00 0.00 93 1020.8
20260508150150 13 157 0.0 0.0 0.00 0.00 0.00 94 1020.5
20260508145646 13 107 1.6 1.6 0.00 0.00 0.00 94 1020.8
20260508145142 13 95 0.0 0.0 0.00 0.00 0.00 94 1020.4
20260508144640 13 140 0.0 3.2 0.00 0.00 0.00 95 1020.6